Location: *
(47.6569°N, 7.4256°E)
Time: 07:08:57
(UTC+00:00)

ATLAS 5 CENTAUR R/B - Pass Details

Date: 14 December 2019
Orbit: 283 x 14341 km, 60.7° (Epoch: 18 January)

Event Time Altitude Azimuth Distance (km) Brightness Sun altitude
Rises 17:51:48 0° 254° (WSW) 2,064 6.3 -21.3°
Reaches altitude 10° 17:53:47 10° 273° (W) 1,126 4.5 -21.7°
Enters shadow 17:54:46 18° 299° (WNW) 800 3.2 -21.8°
